Вернуться в каталог

SL-8 R/B

АктивенPO
NORAD 24955·ROCKET BODY·🇷🇺 Russia

Запущен Sep 23, 1997 с Plesetsk Cosmodrome

Loading…

Ближайшие Пролёты (ближайшие 24 часа)

TLE

СвежийSource: Space-Track

Эпоха: Sep 14, 2026, 17:01 UTC

1 24955U 97052C   26257.70954807  .00000185  00000-0  15802-3 0  9993
2 24955  82.9157 254.3890 0028926 334.2141  25.7575 13.81948915460779

Отслеживайте SL-8 R/B в реальном времени с AllMySat

Download on the App Store